Location: Clover
(42.5131°N, 114.6874°W)
Time: 12:50:55
(UTC+00:00)

ARIANE 6 FM1 Upper Stage - Visible Passes

Search period start: 21 January 2026 00:00
Search period end: 31 January 2026 00:00
Orbit: 522 x 610 km, 62.0° (Epoch: 20 January)

Date Brightness Start Highest point End Pass type
(mag) Time Alt. Az. Time Alt. Az. Time Alt. Az.
21 Jan 4.6 01:34:45 10° SE 01:36:27 12° ESE 01:37:06 12° ESE visible
21 Jan 4.2 03:10:54 10° SW 03:13:10 31° SW 03:13:10 31° SW visible
22 Jan 4.2 01:33:35 10° SSE 01:36:27 19° ESE 01:38:03 15° E visible
22 Jan 4.0 03:11:14 10° WSW 03:14:06 36° W 03:14:06 36° W visible
23 Jan 3.7 01:32:59 10° S 01:36:29 27° ESE 01:38:53 16° ENE visible
23 Jan 4.2 03:11:42 10° WSW 03:14:56 31° WNW 03:14:56 31° WNW visible
24 Jan 3.1 01:32:41 10° SSW 01:36:32 41° ESE 01:39:38 14° NE visible
24 Jan 4.5 03:12:20 10° W 03:15:40 24° NW 03:15:40 24° NW visible
25 Jan 2.6 01:32:34 10° SSW 01:36:37 63° SE 01:40:16 12° NE visible
25 Jan 4.9 03:13:07 10° W 03:15:59 18° NW 03:16:19 18° NNW visible
26 Jan 2.6 01:32:37 10° SW 01:36:44 86° NW 01:40:45 10° NE visible
26 Jan 5.1 03:14:07 10° WNW 03:16:19 14° NNW 03:16:52 14° NNW visible
27 Jan 3.1 01:32:50 10° SW 01:36:52 58° NW 01:40:50 10° NNE visible
27 Jan 5.4 03:15:30 10° NW 03:16:41 11° NNW 03:17:21 11° NNW visible
28 Jan 3.8 01:33:11 10° WSW 01:37:02 40° NW 01:40:49 10° NNE visible
29 Jan 4.3 01:33:40 10° WSW 01:37:14 29° NW 01:40:45 10° NNE visible
30 Jan 4.7 01:34:18 10° W 01:37:27 21° NW 01:40:35 10° NNE visible
